Precipitable_Water
0.25 0.18 0.17 0.18 0.20 0.22 0.24 0.24 0.23 0.23 0.21 0.20 0.19 0.17 0.16 0.16 0.15 0.17 0.17 0.18 0.19 0.16 0.16 0.17 0.17 0.17 0.17 0.19 0.21 0.30 0.46 0.50 0.55 0.57 0.62 0.65 0.67 0.71 0.71 0.68 0.68 0.72 0.70 0.84 0.92 0.96 0.98 1.01 1.10 1.17 1.21 1.25 1.30 1.35 1.35 1.33 1.33 1.36 1.40 1.36 1.36 1.45 1.45 1.37 1.35 1.36 1.36 1.34 1.35 1.37 1.35 1.32 1.38 1.39 1.41 1.41 1.36 1.31 1.31 1.28 1.25 1.22 1.21 1.18 1.15 1.13
0.25 0.18 0.17 0.21 0.23 0.24 0.24 0.25 0.25 0.23 0.22 0.20 0.18 0.17 0.16 0.17 0.15 0.17 0.17 0.19 0.20 0.16 0.15 0.17 0.17 0.17 0.17 0.19 0.21 0.26 0.37 0.40 0.45 0.47 0.51 0.57 0.63 0.70 0.73 0.69 0.67 0.72 0.82 0.86 0.85 0.93 0.97 1.00 1.08 1.16 1.19 1.21 1.19 1.26 1.30 1.28 1.30 1.36 1.39 1.35 1.32 1.43 1.42 1.39 1.37 1.37 1.37 1.37 1.34 1.31 1.32 1.34 1.36 1.33 1.32 1.29 1.28 1.28 1.26 1.25 1.23 1.20 1.15 1.11 1.09 1.09
0.18 0.15 0.19 0.23 0.26 0.27 0.26 0.25 0.24 0.22 0.20 0.20 0.18 0.17 0.16 0.16 0.18 0.19 0.18 0.18 0.18 0.17 0.14 0.17 0.16 0.16 0.18 0.20 0.22 0.22 0.27 0.32 0.40 0.43 0.42 0.47 0.53 0.62 0.72 0.73 0.72 0.73 0.74 0.79 0.83 0.91 0.96 1.02 1.07 1.12 1.17 1.19 1.22 1.25 1.26 1.29 1.30 1.32 1.35 1.34 1.31 1.36 1.41 1.40 1.40 1.39 1.35 1.38 1.40 1.36 1.36 1.35 1.32 1.40 1.40 1.33 1.31 1.28 1.23 1.21 1.19 1.14 1.10 1.06 1.05 1.07
0.15 0.16 0.20 0.25 0.26 0.25 0.24 0.24 0.23 0.22 0.21 0.19 0.18 0.16 0.14 0.17 0.16 0.15 0.18 0.18 0.19 0.17 0.16 0.17 0.16 0.16 0.18 0.21 0.22 0.23 0.24 0.28 0.39 0.47 0.46 0.48 0.46 0.49 0.58 0.65 0.65 0.66 0.69 0.68 0.75 0.81 0.94 1.02 1.06 1.11 1.14 1.17 1.21 1.21 1.24 1.25 1.23 1.28 1.30 1.37 1.34 1.31 1.44 1.45 1.43 1.42 1.42 1.41 1.41 1.42 1.41 1.40 1.36 1.31 1.35 1.31 1.28 1.23 1.18 1.10 1.12 1.11 1.07 1.02 1.01 1.05
0.17 0.20 0.24 0.24 0.24 0.23 0.21 0.23 0.21 0.20 0.18 0.20 0.19 0.17 0.16 0.17 0.17 0.16 0.16 0.17 0.17 0.18 0.18 0.17 0.17 0.16 0.17 0.17 0.19 0.22 0.24 0.27 0.36 0.47 0.51 0.55 0.56 0.62 0.71 0.70 0.70 0.64 0.65 0.66 0.75 0.83 0.91 0.97 1.01 1.06 1.13 1.20 1.17 1.19 1.20 1.22 1.22 1.26 1.28 1.31 1.32 1.28 1.35 1.42 1.46 1.43 1.41 1.39 1.36 1.37 1.38 1.39 1.34 1.30 1.23 1.18 1.13 1.12 1.08 1.05 1.04 1.01 1.03 1.02 1.02 1.05
0.21 0.25 0.28 0.25 0.24 0.22 0.21 0.20 0.21 0.20 0.17 0.18 0.20 0.18 0.17 0.18 0.16 0.16 0.17 0.15 0.14 0.13 0.19 0.20 0.14 0.13 0.17 0.18 0.19 0.21 0.22 0.21 0.27 0.36 0.40 0.44 0.49 0.56 0.57 0.58 0.64 0.68 0.74 0.73 0.73 0.80 0.92 1.01 1.06 1.09 1.14 1.16 1.18 1.18 1.21 1.25 1.26 1.27 1.30 1.33 1.31 1.28 1.29 1.37 1.44 1.45 1.40 1.35 1.29 1.26 1.21 1.17 1.15 1.05 1.04 1.00 0.95 0.95 0.94 0.92 0.99 1.00 1.01 1.02 1.03 1.04
0.23 0.27 0.26 0.24 0.24 0.24 0.22 0.21 0.23 0.23 0.18 0.16 0.16 0.18 0.18 0.17 0.17 0.16 0.15 0.15 0.12 0.12 0.20 0.23 0.14 0.12 0.18 0.19 0.22 0.25 0.25 0.23 0.24 0.27 0.34 0.41 0.45 0.49 0.50 0.52 0.55 0.58 0.64 0.75 0.81 0.87 0.92 0.99 1.04 1.08 1.11 1.15 1.16 1.20 1.25 1.27 1.27 1.29 1.30 1.34 1.32 1.31 1.29 1.30 1.38 1.43 1.38 1.32 1.29 1.24 1.20 1.18 1.10 1.01 1.03 1.01 0.93 0.88 0.88 0.93 0.93 0.95 0.99 1.00 0.99 1.01
0.24 0.25 0.26 0.26 0.25 0.23 0.22 0.21 0.23 0.22 0.18 0.15 0.20 0.20 0.20 0.18 0.17 0.16 0.16 0.16 0.16 0.20 0.22 0.23 0.21 0.15 0.13 0.18 0.24 0.30 0.28 0.26 0.23 0.23 0.30 0.39 0.43 0.45 0.47 0.49 0.52 0.56 0.61 0.66 0.75 0.83 0.91 1.01 1.06 1.06 1.12 1.16 1.18 1.24 1.26 1.25 1.28 1.27 1.28 1.30 1.31 1.34 1.34 1.31 1.34 1.40 1.37 1.29 1.27 1.24 1.22 1.17 1.09 1.04 0.92 0.87 0.85 0.88 0.87 0.88 0.89 0.91 0.93 0.94 0.95 0.95
0.25 0.24 0.25 0.25 0.25 0.24 0.21 0.22 0.24 0.23 0.19 0.18 0.21 0.21 0.19 0.19 0.19 0.20 0.19 0.19 0.19 0.18 0.15 0.18 0.22 0.16 0.15 0.18 0.24 0.30 0.23 0.24 0.22 0.22 0.26 0.35 0.45 0.47 0.48 0.49 0.50 0.57 0.64 0.69 0.75 0.83 0.91 1.02 1.11 1.15 1.14 1.19 1.22 1.25 1.25 1.24 1.27 1.28 1.30 1.31 1.32 1.32 1.31 1.35 1.36 1.36 1.35 1.32 1.27 1.23 1.23 1.11 1.16 1.07 0.92 0.90 0.92 0.86 0.87 0.85 0.90 0.91 0.91 0.93 0.94 0.94
0.28 0.29 0.29 0.28 0.25 0.21 0.23 0.24 0.25 0.24 0.19 0.21 0.23 0.23 0.22 0.22 0.21 0.22 0.21 0.20 0.20 0.18 0.12 0.15 0.20 0.14 0.14 0.19 0.20 0.29 0.24 0.21 0.23 0.25 0.28 0.34 0.41 0.47 0.49 0.51 0.57 0.65 0.70 0.76 0.83 0.93 1.01 1.11 1.17 1.21 1.21 1.20 1.22 1.28 1.30 1.29 1.29 1.29 1.29 1.28 1.27 1.29 1.32 1.34 1.34 1.37 1.34 1.34 1.28 1.22 1.21 1.15 1.10 1.02 0.94 0.93 0.86 0.84 0.86 0.86 0.88 0.91 0.91 0.90 0.89 0.90
0.30 0.33 0.32 0.28 0.24 0.24 0.24 0.24 0.24 0.24 0.23 0.26 0.24 0.22 0.22 0.22 0.23 0.24 0.23 0.22 0.20 0.14 0.13 0.17 0.20 0.18 0.13 0.16 0.18 0.20 0.23 0.27 0.27 0.28 0.32 0.37 0.43 0.50 0.55 0.57 0.63 0.66 0.73 0.80 0.86 0.93 1.02 1.14 1.18 1.19 1.17 1.20 1.26 1.30 1.30 1.28 1.28 1.30 1.29 1.28 1.27 1.29 1.39 1.36 1.35 1.36 1.34 1.36 1.29 1.25 1.22 1.17 1.04 0.96 0.92 0.86 0.81 0.84 0.85 0.85 0.85 0.86 0.87 0.86 0.83 0.85
0.29 0.30 0.27 0.26 0.28 0.26 0.25 0.22 0.25 0.26 0.25 0.24 0.22 0.21 0.20 0.20 0.22 0.21 0.20 0.22 0.15 0.12 0.16 0.18 0.18 0.20 0.12 0.15 0.21 0.30 0.37 0.37 0.34 0.29 0.30 0.34 0.40 0.49 0.58 0.65 0.69 0.72 0.76 0.81 0.83 0.88 0.93 1.00 1.08 1.12 1.12 1.16 1.22 1.27 1.27 1.27 1.28 1.28 1.31 1.29 1.28 1.31 1.27 1.40 1.40 1.37 1.37 1.35 1.28 1.29 1.26 1.18 1.06 0.96 0.89 0.82 0.80 0.83 0.83 0.84 0.82 0.85 0.84 0.81 0.81 0.84
0.25 0.26 0.29 0.29 0.33 0.27 0.24 0.22 0.23 0.25 0.25 0.23 0.22 0.21 0.17 0.17 0.17 0.15 0.17 0.14 0.13 0.12 0.17 0.19 0.20 0.17 0.15 0.18 0.23 0.34 0.41 0.46 0.47 0.44 0.39 0.38 0.42 0.47 0.54 0.62 0.69 0.75 0.77 0.77 0.80 0.80 0.83 0.86 0.90 0.94 1.01 1.09 1.15 1.20 1.25 1.26 1.24 1.34 1.38 1.32 1.27 1.29 1.31 1.31 1.35 1.36 1.39 1.35 1.29 1.27 1.27 1.20 1.09 1.00 0.94 0.89 0.84 0.85 0.83 0.83 0.80 0.79 0.78 0.80 0.80 0.85
0.22 0.27 0.27 0.26 0.27 0.29 0.26 0.21 0.21 0.20 0.23 0.23 0.21 0.21 0.18 0.15 0.15 0.13 0.15 0.16 0.15 0.17 0.20 0.19 0.22 0.16 0.19 0.22 0.33 0.37 0.49 0.57 0.57 0.55 0.52 0.49 0.47 0.54 0.58 0.65 0.71 0.76 0.77 0.79 0.81 0.82 0.86 0.95 1.05 1.07 1.08 1.13 1.16 1.19 1.20 1.23 1.21 1.18 1.19 1.20 1.26 1.28 1.32 1.31 1.33 1.43 1.40 1.35 1.29 1.29 1.26 1.17 1.07 0.98 0.98 0.91 0.85 0.85 0.85 0.84 0.79 0.79 0.79 0.81 0.83 0.85
0.17 0.16 0.20 0.24 0.21 0.27 0.26 0.24 0.23 0.23 0.24 0.24 0.26 0.24 0.22 0.19 0.16 0.13 0.15 0.13 0.14 0.16 0.19 0.23 0.17 0.15 0.15 0.22 0.41 0.49 0.61 0.64 0.65 0.62 0.57 0.57 0.57 0.65 0.71 0.73 0.76 0.80 0.81 0.80 0.82 0.86 0.94 1.03 1.10 1.13 1.17 1.19 1.20 1.20 1.19 1.16 1.13 1.15 1.13 1.16 1.21 1.21 1.27 1.31 1.37 1.35 1.37 1.34 1.29 1.27 1.23 1.13 1.04 1.01 0.98 0.90 0.88 0.87 0.87 0.86 0.82 0.84 0.86 0.86 0.87 0.90
0.20 0.19 0.22 0.24 0.25 0.26 0.24 0.27 0.27 0.26 0.24 0.26 0.26 0.26 0.21 0.20 0.23 0.16 0.18 0.17 0.16 0.16 0.15 0.17 0.15 0.20 0.20 0.42 0.52 0.59 0.63 0.64 0.66 0.65 0.67 0.65 0.70 0.73 0.73 0.77 0.81 0.81 0.84 0.87 0.84 0.88 0.96 1.06 1.12 1.14 1.18 1.22 1.22 1.16 1.14 1.13 1.13 1.17 1.22 1.26 1.26 1.23 1.26 1.27 1.28 1.31 1.31 1.31 1.29 1.23 1.15 1.04 1.01 1.03 0.99 0.92 0.91 0.91 0.91 0.88 0.86 0.86 0.89 0.91 0.92 0.96
0.21 0.18 0.24 0.24 0.26 0.25 0.26 0.28 0.28 0.28 0.19 0.25 0.25 0.20 0.22 0.28 0.25 0.21 0.20 0.21 0.20 0.17 0.14 0.22 0.18 0.23 0.35 0.39 0.52 0.59 0.57 0.58 0.62 0.67 0.67 0.71 0.76 0.75 0.77 0.82 0.84 0.85 0.87 0.89 0.94 0.98 1.03 1.07 1.12 1.15 1.15 1.20 1.21 1.15 1.14 1.16 1.18 1.18 1.23 1.26 1.24 1.27 1.23 1.24 1.23 1.23 1.22 1.22 1.25 1.20 1.10 1.03 1.03 1.02 0.96 0.91 0.91 0.91 0.93 0.93 0.92 0.90 0.91 0.94 0.97 0.97
0.22 0.20 0.25 0.24 0.22 0.26 0.29 0.30 0.29 0.29 0.28 0.26 0.22 0.25 0.29 0.31 0.28 0.21 0.16 0.18 0.16 0.13 0.15 0.20 0.17 0.21 0.22 0.21 0.44 0.51 0.53 0.55 0.59 0.63 0.66 0.68 0.68 0.66 0.69 0.75 0.82 0.84 0.87 0.95 0.97 1.03 1.14 1.16 1.16 1.15 1.17 1.21 1.23 1.20 1.20 1.21 1.24 1.25 1.27 1.26 1.23 1.23 1.22 1.26 1.24 1.27 1.24 1.17 1.23 1.17 1.07 1.06 1.05 1.04 1.01 0.96 0.91 0.92 0.92 0.95 0.92 0.92 0.90 0.92 0.96 0.99
0.28 0.20 0.24 0.26 0.26 0.28 0.32 0.30 0.28 0.29 0.31 0.26 0.25 0.31 0.23 0.21 0.19 0.22 0.18 0.13 0.13 0.12 0.14 0.19 0.22 0.22 0.25 0.25 0.37 0.39 0.46 0.52 0.57 0.61 0.59 0.62 0.66 0.68 0.70 0.76 0.82 0.88 0.93 0.94 0.90 0.98 1.08 1.14 1.17 1.17 1.18 1.23 1.25 1.24 1.24 1.23 1.24 1.27 1.28 1.26 1.24 1.21 1.22 1.22 1.25 1.24 1.24 1.23 1.21 1.13 1.05 1.05 1.05 1.05 1.02 0.96 0.93 0.93 0.91 0.91 0.91 0.90 0.92 0.92 0.94 0.95
0.31 0.21 0.23 0.28 0.26 0.28 0.30 0.27 0.22 0.25 0.29 0.30 0.30 0.27 0.30 0.25 0.23 0.20 0.19 0.19 0.16 0.14 0.14 0.14 0.20 0.19 0.28 0.32 0.41 0.43 0.50 0.55 0.57 0.59 0.59 0.63 0.64 0.66 0.70 0.74 0.78 0.81 0.85 0.94 0.95 0.96 1.06 1.11 1.14 1.18 1.19 1.20 1.21 1.21 1.23 1.24 1.23 1.22 1.24 1.22 1.18 1.21 1.23 1.20 1.21 1.21 1.22 1.21 1.19 1.11 1.07 1.08 1.05 1.04 1.02 0.96 0.94 0.93 0.90 0.90 0.91 0.93 0.91 0.90 0.89 0.90
0.29 0.29 0.21 0.25 0.29 0.27 0.23 0.28 0.25 0.25 0.24 0.25 0.25 0.24 0.25 0.25 0.29 0.26 0.25 0.20 0.18 0.16 0.15 0.14 0.14 0.19 0.32 0.46 0.45 0.50 0.57 0.60 0.61 0.62 0.64 0.66 0.69 0.71 0.73 0.76 0.80 0.83 0.88 0.88 0.89 0.96 1.03 1.08 1.12 1.16 1.18 1.20 1.24 1.24 1.21 1.20 1.18 1.16 1.17 1.18 1.17 1.18 1.19 1.18 1.21 1.19 1.21 1.18 1.15 1.10 1.06 1.07 1.05 1.04 1.03 1.00 0.98 0.91 0.89 0.91 0.92 0.94 0.95 0.91 0.86 0.86
0.28 0.28 0.22 0.26 0.24 0.24 0.25 0.34 0.35 0.31 0.29 0.26 0.26 0.24 0.24 0.23 0.21 0.18 0.17 0.25 0.23 0.19 0.17 0.15 0.14 0.22 0.36 0.52 0.55 0.55 0.62 0.63 0.66 0.66 0.69 0.71 0.73 0.74 0.77 0.76 0.74 0.74 0.81 0.90 0.92 0.94 1.05 1.10 1.12 1.15 1.18 1.21 1.20 1.20 1.16 1.14 1.15 1.13 1.13 1.19 1.13 1.18 1.20 1.17 1.18 1.18 1.18 1.16 1.15 1.09 1.08 1.10 1.09 1.05 1.02 1.01 0.96 0.90 0.88 0.91 0.92 0.95 0.94 0.88 0.86 0.86
0.33 0.31 0.27 0.24 0.25 0.26 0.30 0.37 0.41 0.40 0.38 0.35 0.29 0.26 0.28 0.27 0.25 0.20 0.16 0.19 0.22 0.22 0.24 0.23 0.18 0.21 0.45 0.54 0.57 0.59 0.64 0.67 0.70 0.72 0.70 0.73 0.77 0.80 0.82 0.80 0.78 0.77 0.78 0.86 0.94 0.99 1.09 1.13 1.14 1.15 1.16 1.18 1.17 1.15 1.15 1.14 1.15 1.16 1.16 1.19 1.16 1.14 1.18 1.19 1.18 1.18 1.17 1.13 1.11 1.07 1.08 1.10 1.07 1.03 1.02 1.00 0.92 0.87 0.88 0.91 0.93 0.96 0.93 0.90 0.88 0.87
0.39 0.30 0.27 0.27 0.32 0.33 0.35 0.38 0.39 0.39 0.37 0.33 0.34 0.35 0.30 0.26 0.26 0.23 0.21 0.23 0.21 0.23 0.21 0.22 0.17 0.25 0.46 0.56 0.57 0.62 0.66 0.69 0.73 0.73 0.71 0.76 0.79 0.81 0.82 0.83 0.83 0.82 0.85 0.87 0.93 0.97 1.08 1.10 1.14 1.15 1.15 1.14 1.14 1.18 1.15 1.18 1.17 1.16 1.16 1.16 1.16 1.13 1.17 1.18 1.18 1.14 1.11 1.10 1.09 1.09 1.08 1.06 1.04 1.00 1.00 0.96 0.88 0.85 0.88 0.93 0.94 0.96 0.95 0.92 0.90 0.83
0.31 0.36 0.30 0.26 0.25 0.26 0.29 0.33 0.32 0.37 0.37 0.33 0.32 0.35 0.36 0.34 0.31 0.29 0.27 0.28 0.21 0.23 0.24 0.21 0.18 0.24 0.45 0.57 0.58 0.59 0.62 0.63 0.65 0.70 0.75 0.72 0.76 0.78 0.80 0.81 0.81 0.84 0.86 0.90 1.00 1.02 1.08 1.12 1.10 1.12 1.15 1.13 1.13 1.15 1.18 1.20 1.17 1.15 1.16 1.16 1.16 1.17 1.19 1.20 1.20 1.16 1.11 1.08 1.07 1.08 1.05 1.02 1.01 0.98 0.97 0.95 0.87 0.85 0.89 0.94 0.95 0.95 0.93 0.91 0.89 0.84
0.38 0.37 0.31 0.23 0.20 0.18 0.18 0.19 0.21 0.24 0.30 0.34 0.36 0.36 0.37 0.34 0.32 0.28 0.22 0.23 0.19 0.24 0.25 0.22 0.22 0.34 0.48 0.57 0.57 0.59 0.60 0.58 0.63 0.67 0.72 0.75 0.75 0.77 0.80 0.81 0.82 0.86 0.89 0.91 0.98 1.02 1.02 1.05 1.09 1.10 1.11 1.10 1.11 1.13 1.15 1.17 1.18 1.17 1.18 1.18 1.18 1.16 1.17 1.19 1.21 1.19 1.14 1.10 1.07 1.08 1.04 1.02 1.01 0.99 0.98 0.97 0.90 0.88 0.89 0.93 0.95 0.95 0.94 0.93 0.89 0.86
0.42 0.42 0.38 0.33 0.28 0.25 0.26 0.28 0.34 0.35 0.34 0.29 0.32 0.34 0.35 0.36 0.36 0.32 0.28 0.24 0.20 0.23 0.23 0.26 0.28 0.34 0.40 0.47 0.51 0.54 0.57 0.56 0.58 0.63 0.65 0.69 0.74 0.77 0.80 0.80 0.81 0.85 0.89 0.92 0.95 0.98 0.99 0.99 1.03 1.06 1.05 1.06 1.08 1.09 1.10 1.13 1.16 1.18 1.16 1.15 1.16 1.17 1.17 1.19 1.20 1.21 1.19 1.17 1.17 1.14 1.11 1.06 1.05 1.04 1.01 1.00 0.94 0.92 0.91 0.93 0.96 0.97 0.96 0.96 0.93 0.87
0.42 0.38 0.40 0.39 0.37 0.36 0.38 0.35 0.38 0.37 0.32 0.35 0.33 0.34 0.37 0.36 0.35 0.30 0.26 0.23 0.29 0.24 0.20 0.30 0.36 0.32 0.38 0.45 0.49 0.52 0.56 0.58 0.60 0.62 0.66 0.69 0.71 0.74 0.78 0.80 0.81 0.84 0.90 0.93 0.95 0.96 0.96 1.00 1.03 1.06 1.09 1.10 1.10 1.11 1.12 1.15 1.17 1.18 1.16 1.12 1.14 1.16 1.17 1.20 1.21 1.20 1.20 1.21 1.17 1.14 1.11 1.10 1.09 1.09 1.06 1.02 0.97 0.96 0.94 0.94 0.98 1.01 1.02 1.00 0.95 0.91
0.40 0.36 0.43 0.41 0.39 0.41 0.42 0.41 0.41 0.39 0.37 0.37 0.37 0.37 0.35 0.37 0.36 0.31 0.31 0.32 0.32 0.25 0.23 0.31 0.38 0.34 0.40 0.45 0.51 0.53 0.55 0.56 0.60 0.64 0.67 0.71 0.73 0.75 0.75 0.75 0.75 0.78 0.83 0.86 0.89 0.92 0.93 0.94 0.96 0.99 1.01 1.04 1.08 1.07 1.09 1.17 1.16 1.15 1.15 1.17 1.18 1.18 1.18 1.20 1.21 1.21 1.19 1.17 1.13 1.13 1.18 1.17 1.15 1.15 1.12 1.08 1.04 1.01 0.96 0.94 1.02 1.05 1.03 1.00 0.98 0.95
0.43 0.38 0.42 0.42 0.40 0.41 0.42 0.42 0.44 0.39 0.38 0.38 0.38 0.38 0.39 0.39 0.38 0.38 0.37 0.40 0.37 0.34 0.35 0.37 0.38 0.36 0.42 0.47 0.51 0.55 0.60 0.62 0.64 0.68 0.69 0.69 0.69 0.72 0.73 0.72 0.73 0.75 0.79 0.81 0.85 0.87 0.89 0.89 0.91 0.93 0.96 0.98 1.01 1.04 1.05 1.09 1.12 1.14 1.14 1.16 1.19 1.19 1.21 1.21 1.18 1.18 1.16 1.14 1.15 1.18 1.20 1.21 1.19 1.19 1.18 1.15 1.12 1.09 1.05 1.05 1.09 1.08 1.07 1.05 1.03 0.98
0.41 0.38 0.43 0.42 0.38 0.38 0.42 0.44 0.45 0.43 0.41 0.36 0.39 0.40 0.41 0.41 0.41 0.41 0.41 0.40 0.42 0.39 0.41 0.40 0.38 0.37 0.47 0.53 0.54 0.59 0.63 0.65 0.65 0.64 0.65 0.67 0.69 0.70 0.71 0.71 0.72 0.74 0.75 0.79 0.83 0.86 0.88 0.91 0.91 0.92 0.93 0.94 0.96 0.99 1.02 1.04 1.09 1.14 1.15 1.16 1.17 1.18 1.21 1.22 1.17 1.16 1.15 1.15 1.17 1.18 1.19 1.18 1.18 1.18 1.16 1.16 1.14 1.13 1.12 1.11 1.14 1.16 1.12 1.09 1.06 0.99
0.42 0.39 0.43 0.41 0.36 0.36 0.41 0.42 0.42 0.44 0.43 0.41 0.39 0.39 0.39 0.39 0.36 0.39 0.37 0.43 0.39 0.36 0.40 0.41 0.37 0.38 0.48 0.55 0.57 0.59 0.60 0.60 0.60 0.61 0.63 0.65 0.68 0.70 0.70 0.71 0.72 0.75 0.79 0.81 0.82 0.84 0.87 0.87 0.87 0.87 0.89 0.90 0.92 0.95 0.98 1.02 1.06 1.07 1.08 1.14 1.15 1.17 1.20 1.19 1.16 1.14 1.14 1.16 1.17 1.18 1.17 1.18 1.18 1.17 1.18 1.17 1.15 1.14 1.12 1.09 1.10 1.11 1.10 1.09 1.03 0.99
0.40 0.37 0.34 0.35 0.32 0.34 0.42 0.44 0.42 0.42 0.40 0.35 0.37 0.40 0.42 0.43 0.44 0.45 0.45 0.48 0.45 0.46 0.39 0.35 0.37 0.47 0.52 0.56 0.54 0.56 0.59 0.60 0.61 0.62 0.63 0.65 0.68 0.70 0.72 0.73 0.75 0.76 0.77 0.78 0.81 0.82 0.83 0.82 0.85 0.87 0.89 0.90 0.91 0.95 0.98 1.04 1.07 1.07 1.08 1.10 1.13 1.15 1.14 1.12 1.12 1.12 1.14 1.11 1.14 1.15 1.16 1.18 1.17 1.17 1.14 1.15 1.13 1.13 1.12 1.10 1.11 1.09 1.08 1.08 1.07 1.03
0.40 0.36 0.33 0.37 0.29 0.33 0.39 0.42 0.44 0.37 0.27 0.30 0.47 0.52 0.49 0.43 0.44 0.40 0.40 0.44 0.48 0.50 0.45 0.49 0.49 0.53 0.54 0.53 0.52 0.54 0.57 0.60 0.62 0.66 0.69 0.68 0.68 0.70 0.72 0.73 0.74 0.75 0.76 0.78 0.78 0.80 0.81 0.84 0.83 0.84 0.87 0.93 0.98 1.01 1.01 1.02 1.01 1.05 1.08 1.08 1.08 1.08 1.07 1.07 1.06 1.07 1.06 1.08 1.09 1.09 1.14 1.13 1.12 1.10 1.11 1.12 1.12 1.10 1.06 1.03 1.02 1.03 1.06 1.06 1.04 0.99
0.36 0.35 0.33 0.37 0.29 0.28 0.35 0.37 0.32 0.26 0.29 0.46 0.54 0.55 0.56 0.54 0.53 0.48 0.47 0.48 0.50 0.52 0.52 0.50 0.50 0.52 0.54 0.56 0.56 0.58 0.61 0.64 0.67 0.68 0.69 0.70 0.71 0.71 0.71 0.72 0.74 0.75 0.77 0.77 0.78 0.80 0.81 0.83 0.83 0.82 0.85 0.87 0.90 0.93 0.97 1.00 0.99 1.01 1.00 1.02 1.02 1.02 1.02 1.01 1.01 1.01 1.03 1.03 1.04 1.06 1.05 1.07 1.07 1.07 1.08 1.09 1.08 1.06 1.04 1.02 1.02 1.00 1.00 0.98 0.98 0.99
0.34 0.32 0.33 0.33 0.34 0.35 0.31 0.30 0.21 0.24 0.41 0.49 0.52 0.54 0.58 0.58 0.56 0.52 0.46 0.51 0.53 0.53 0.54 0.51 0.53 0.55 0.56 0.57 0.59 0.61 0.62 0.65 0.67 0.68 0.69 0.71 0.73 0.72 0.72 0.72 0.73 0.75 0.75 0.76 0.76 0.78 0.80 0.83 0.81 0.78 0.79 0.84 0.87 0.89 0.91 0.93 0.95 0.98 0.95 0.97 0.95 0.96 0.96 0.95 0.95 0.95 0.97 0.97 0.98 0.98 0.99 1.01 1.02 1.02 1.05 1.04 1.04 1.02 1.01 1.00 1.01 0.98 0.99 0.99 1.00 1.02
0.39 0.35 0.32 0.29 0.36 0.25 0.29 0.28 0.28 0.39 0.38 0.41 0.42 0.45 0.50 0.47 0.49 0.46 0.39 0.47 0.56 0.56 0.55 0.53 0.54 0.57 0.58 0.59 0.61 0.63 0.64 0.65 0.61 0.62 0.68 0.69 0.72 0.74 0.74 0.74 0.74 0.75 0.77 0.77 0.77 0.78 0.80 0.83 0.80 0.79 0.80 0.81 0.81 0.84 0.84 0.88 0.90 0.90 0.91 0.90 0.90 0.91 0.91 0.91 0.90 0.90 0.90 0.90 0.90 0.94 0.95 0.96 0.98 0.99 1.00 0.99 0.97 0.96 0.95 0.95 0.95 0.95 0.95 0.95 1.00 0.99
0.44 0.34 0.35 0.29 0.30 0.34 0.28 0.26 0.28 0.27 0.23 0.32 0.43 0.52 0.57 0.58 0.58 0.57 0.50 0.45 0.58 0.60 0.61 0.57 0.55 0.57 0.58 0.60 0.61 0.62 0.63 0.57 0.52 0.54 0.63 0.68 0.71 0.72 0.74 0.74 0.75 0.75 0.76 0.77 0.78 0.79 0.80 0.80 0.80 0.82 0.78 0.75 0.77 0.79 0.79 0.80 0.82 0.84 0.83 0.82 0.83 0.84 0.84 0.85 0.85 0.86 0.86 0.85 0.86 0.88 0.90 0.92 0.93 0.95 0.95 0.93 0.90 0.89 0.90 0.93 0.94 0.94 0.94 0.97 0.95 0.93
0.43 0.43 0.39 0.32 0.31 0.32 0.29 0.25 0.24 0.22 0.27 0.39 0.44 0.50 0.56 0.59 0.58 0.58 0.47 0.38 0.55 0.59 0.61 0.60 0.57 0.58 0.58 0.59 0.60 0.62 0.57 0.49 0.48 0.55 0.64 0.69 0.71 0.73 0.72 0.73 0.75 0.75 0.76 0.75 0.75 0.75 0.76 0.77 0.77 0.78 0.78 0.79 0.78 0.78 0.79 0.77 0.76 0.78 0.78 0.77 0.78 0.78 0.78 0.78 0.79 0.80 0.82 0.84 0.85 0.85 0.86 0.87 0.88 0.89 0.90 0.89 0.88 0.87 0.86 0.86 0.87 0.89 0.92 0.92 0.91 0.90
0.36 0.35 0.34 0.29 0.28 0.29 0.29 0.25 0.24 0.30 0.29 0.39 0.46 0.51 0.56 0.59 0.58 0.48 0.29 0.32 0.52 0.59 0.60 0.60 0.58 0.58 0.59 0.60 0.62 0.59 0.54 0.48 0.49 0.57 0.67 0.70 0.72 0.73 0.73 0.72 0.74 0.75 0.76 0.77 0.76 0.76 0.76 0.76 0.75 0.75 0.75 0.75 0.75 0.78 0.79 0.79 0.78 0.77 0.76 0.75 0.74 0.73 0.72 0.72 0.73 0.75 0.76 0.78 0.79 0.80 0.80 0.81 0.81 0.82 0.81 0.81 0.82 0.83 0.84 0.85 0.85 0.85 0.85 0.85 0.86 0.85
0.31 0.31 0.31 0.27 0.29 0.30 0.29 0.28 0.31 0.32 0.41 0.46 0.47 0.52 0.55 0.58 0.50 0.32 0.25 0.39 0.55 0.59 0.60 0.60 0.59 0.60 0.62 0.61 0.61 0.54 0.58 0.60 0.62 0.66 0.69 0.70 0.70 0.71 0.74 0.75 0.75 0.76 0.75 0.76 0.76 0.77 0.75 0.74 0.73 0.71 0.72 0.73 0.75 0.75 0.76 0.77 0.77 0.76 0.75 0.74 0.73 0.73 0.73 0.71 0.70 0.70 0.69 0.69 0.68 0.67 0.68 0.69 0.70 0.72 0.74 0.76 0.77 0.79 0.80 0.81 0.80 0.80 0.80 0.81 0.81 0.79
0.30 0.30 0.31 0.31 0.28 0.27 0.30 0.27 0.27 0.32 0.43 0.48 0.51 0.51 0.56 0.48 0.31 0.29 0.47 0.58 0.58 0.57 0.60 0.61 0.59 0.61 0.62 0.61 0.61 0.61 0.62 0.65 0.68 0.68 0.68 0.68 0.68 0.70 0.71 0.72 0.73 0.75 0.77 0.77 0.77 0.76 0.75 0.74 0.74 0.74 0.73 0.73 0.74 0.74 0.73 0.71 0.71 0.72 0.73 0.73 0.72 0.72 0.74 0.73 0.72 0.71 0.70 0.69 0.68 0.70 0.71 0.71 0.70 0.70 0.70 0.70 0.70 0.70 0.71 0.73 0.75 0.76 0.76 0.76 0.76 0.76
0.29 0.25 0.26 0.25 0.29 0.28 0.28 0.25 0.24 0.20 0.39 0.49 0.50 0.49 0.53 0.38 0.42 0.53 0.56 0.57 0.61 0.60 0.59 0.59 0.60 0.61 0.63 0.60 0.62 0.62 0.63 0.64 0.65 0.66 0.67 0.67 0.66 0.66 0.68 0.68 0.68 0.68 0.68 0.69 0.72 0.73 0.73 0.71 0.70 0.71 0.72 0.74 0.73 0.73 0.75 0.74 0.71 0.70 0.71 0.70 0.72 0.75 0.75 0.74 0.72 0.70 0.68 0.67 0.67 0.67 0.67 0.67 0.68 0.68 0.69 0.68 0.68 0.67 0.66 0.67 0.66 0.66 0.67 0.66 0.66 0.68
0.35 0.25 0.25 0.27 0.31 0.23 0.24 0.22 0.23 0.35 0.43 0.50 0.49 0.39 0.48 0.51 0.57 0.59 0.58 0.55 0.60 0.60 0.58 0.58 0.60 0.62 0.63 0.62 0.61 0.62 0.62 0.63 0.64 0.66 0.65 0.66 0.66 0.66 0.66 0.66 0.67 0.66 0.66 0.67 0.67 0.67 0.68 0.69 0.69 0.69 0.70 0.71 0.71 0.72 0.72 0.72 0.71 0.71 0.69 0.70 0.73 0.74 0.74 0.74 0.73 0.71 0.69 0.66 0.65 0.65 0.65 0.65 0.65 0.66 0.66 0.66 0.66 0.66 0.65 0.64 0.64 0.64 0.63 0.63 0.62 0.61
0.33 0.28 0.31 0.26 0.34 0.29 0.27 0.31 0.40 0.44 0.46 0.50 0.51 0.52 0.55 0.59 0.61 0.62 0.61 0.60 0.58 0.59 0.62 0.59 0.59 0.62 0.64 0.63 0.63 0.62 0.60 0.62 0.62 0.64 0.62 0.62 0.63 0.62 0.61 0.60 0.60 0.60 0.61 0.63 0.64 0.65 0.64 0.63 0.63 0.65 0.66 0.68 0.69 0.69 0.69 0.69 0.67 0.67 0.66 0.68 0.70 0.69 0.69 0.69 0.69 0.68 0.67 0.65 0.65 0.64 0.64 0.63 0.62 0.62 0.62 0.62 0.61 0.60 0.60 0.59 0.60 0.59 0.59 0.59 0.58 0.57
0.36 0.35 0.36 0.32 0.30 0.38 0.40 0.41 0.44 0.44 0.46 0.48 0.52 0.55 0.55 0.58 0.61 0.62 0.61 0.59 0.61 0.62 0.63 0.60 0.61 0.61 0.62 0.63 0.60 0.59 0.59 0.59 0.57 0.57 0.57 0.57 0.57 0.57 0.57 0.57 0.57 0.57 0.57 0.57 0.59 0.60 0.61 0.62 0.61 0.60 0.60 0.62 0.64 0.65 0.66 0.65 0.65 0.62 0.64 0.66 0.65 0.65 0.64 0.62 0.61 0.60 0.59 0.59 0.59 0.59 0.59 0.57 0.57 0.57 0.57 0.57 0.56 0.55 0.54 0.53 0.52 0.51 0.51 0.51 0.51 0.50
0.27 0.30 0.27 0.22 0.26 0.24 0.20 0.35 0.36 0.38 0.43 0.45 0.48 0.53 0.56 0.57 0.59 0.61 0.60 0.61 0.61 0.63 0.63 0.63 0.62 0.62 0.61 0.60 0.58 0.56 0.54 0.53 0.52 0.52 0.52 0.52 0.52 0.52 0.53 0.53 0.55 0.55 0.55 0.55 0.57 0.58 0.57 0.57 0.57 0.57 0.57 0.57 0.60 0.61 0.60 0.61 0.61 0.61 0.62 0.62 0.63 0.63 0.62 0.60 0.58 0.57 0.57 0.56 0.55 0.55 0.54 0.53 0.53 0.53 0.54 0.53 0.53 0.52 0.51 0.50 0.48 0.47 0.46 0.45 0.44 0.44
0.18 0.28 0.22 0.22 0.22 0.19 0.21 0.28 0.31 0.34 0.38 0.42 0.44 0.45 0.47 0.53 0.57 0.59 0.61 0.62 0.63 0.63 0.63 0.63 0.63 0.61 0.61 0.56 0.54 0.50 0.49 0.50 0.49 0.49 0.50 0.51 0.51 0.52 0.52 0.52 0.53 0.54 0.55 0.56 0.57 0.58 0.57 0.57 0.55 0.55 0.54 0.53 0.54 0.56 0.57 0.56 0.55 0.56 0.56 0.57 0.57 0.57 0.56 0.55 0.54 0.53 0.52 0.52 0.51 0.50 0.50 0.49 0.49 0.49 0.49 0.49 0.48 0.46 0.46 0.45 0.45 0.42 0.41 0.40 0.39 0.38
0.21 0.24 0.15 0.20 0.18 0.23 0.26 0.27 0.29 0.31 0.31 0.35 0.40 0.43 0.45 0.48 0.52 0.55 0.58 0.60 0.61 0.60 0.60 0.61 0.61 0.59 0.58 0.56 0.55 0.52 0.49 0.49 0.49 0.49 0.48 0.49 0.49 0.50 0.50 0.52 0.53 0.53 0.54 0.53 0.54 0.54 0.53 0.53 0.53 0.53 0.53 0.52 0.54 0.53 0.53 0.53 0.53 0.54 0.55 0.55 0.55 0.53 0.51 0.49 0.48 0.48 0.47 0.47 0.47 0.46 0.46 0.46 0.46 0.46 0.46 0.45 0.45 0.44 0.43 0.41 0.41 0.40 0.40 0.42 0.41 0.39
0.19 0.14 0.19 0.19 0.14 0.15 0.17 0.20 0.25 0.20 0.20 0.29 0.35 0.38 0.41 0.45 0.45 0.46 0.50 0.53 0.56 0.57 0.57 0.56 0.57 0.59 0.58 0.57 0.55 0.53 0.49 0.48 0.49 0.49 0.48 0.50 0.50 0.50 0.51 0.51 0.52 0.53 0.53 0.54 0.54 0.53 0.52 0.53 0.52 0.51 0.51 0.52 0.53 0.53 0.52 0.52 0.52 0.53 0.53 0.52 0.52 0.51 0.48 0.47 0.46 0.46 0.45 0.45 0.45 0.44 0.44 0.43 0.44 0.44 0.44 0.43 0.43 0.43 0.44 0.45 0.44 0.43 0.41 0.40 0.41 0.41
0.17 0.18 0.19 0.15 0.15 0.15 0.23 0.26 0.28 0.29 0.29 0.33 0.35 0.36 0.38 0.40 0.39 0.37 0.39 0.42 0.46 0.50 0.53 0.54 0.53 0.54 0.54 0.55 0.57 0.54 0.52 0.51 0.51 0.51 0.50 0.50 0.50 0.52 0.52 0.52 0.51 0.52 0.52 0.53 0.52 0.51 0.50 0.50 0.50 0.50 0.50 0.51 0.52 0.52 0.52 0.51 0.51 0.51 0.51 0.51 0.50 0.49 0.47 0.45 0.43 0.43 0.43 0.43 0.43 0.43 0.43 0.43 0.43 0.43 0.42 0.41 0.41 0.40 0.39 0.39 0.41 0.42 0.41 0.40 0.39 0.39
Wind_Speed
17 17 17 17 16 16 16 16 15 14 13 13 13 14 13 14 13 13 15 15 14 15 17 16 17 18 18 19 20 21 21 22 22 22 23 23 23 22 21 20 20 19 17 15 15 15 15 16 16 15 14 15 15 15 15 14 14 15 16 16 15 15 15 14 13 13 13 12 12 11 11 11 11 11 10 11 11 11 11 10 10 9 9 9 9 9
17 18 17 17 17 16 15 15 14 14 14 15 15 16 15 15 14 14 16 15 14 16 16 16 17 19 19 19 20 20 21 23 23 23 23 24 24 23 23 22 21 21 19 17 17 17 17 16 16 16 14 15 15 15 15 14 14 15 16 16 15 15 15 14 13 14 13 12 12 11 11 11 11 11 11 11 11 11 11 11 10 9 9 9 9 8
17 18 17 17 17 15 14 14 14 14 15 15 15 16 16 14 14 14 14 14 14 15 16 15 17 19 20 19 19 21 22 23 24 24 24 25 25 24 24 23 22 22 22 21 20 19 18 17 17 16 15 15 16 16 16 15 14 16 17 16 15 16 15 14 14 14 13 12 12 12 12 11 11 11 11 11 11 11 10 10 10 10 9 9 8 8
16 16 16 17 16 15 15 15 15 15 15 15 15 16 16 14 13 14 13 12 13 15 15 16 17 18 19 18 19 22 23 23 23 24 25 25 25 25 24 23 23 23 24 22 21 20 19 18 17 17 16 16 16 16 16 15 14 16 17 16 15 16 16 16 15 14 14 13 12 12 12 12 12 11 11 11 10 10 10 10 10 10 9 9 9 8
16 15 14 15 16 16 15 15 15 15 15 15 16 16 16 14 15 16 14 13 14 15 15 16 17 17 17 17 18 19 21 22 21 23 25 26 25 25 24 24 23 24 24 23 22 21 20 19 18 17 17 17 16 16 16 15 14 15 16 16 16 16 16 16 16 15 14 13 13 12 12 13 12 12 12 11 11 11 11 11 11 10 10 9 9 9
17 15 14 13 15 16 16 15 15 15 15 15 15 16 17 16 16 16 14 13 14 13 13 14 15 14 14 15 17 16 18 20 21 22 25 26 26 25 24 24 24 23 24 23 22 22 21 20 19 18 18 18 17 17 17 16 15 15 16 17 17 17 17 17 16 15 14 14 14 14 14 14 13 13 12 12 12 12 11 11 11 10 10 9 9 9
16 16 16 15 14 15 15 15 14 14 14 13 13 14 16 16 15 14 13 13 13 12 11 12 14 13 13 14 15 15 17 19 20 22 24 26 26 26 25 24 24 24 23 23 22 22 21 21 20 19 19 18 18 18 17 16 16 16 16 17 18 18 18 18 17 16 15 15 15 15 15 15 14 14 13 13 12 12 12 11 10 10 9 9 9 8
14 15 16 16 15 15 15 14 14 14 13 12 11 11 12 13 13 13 13 14 13 13 13 13 14 14 14 14 14 14 16 18 20 22 23 24 26 25 25 24 24 24 23 22 22 21 21 22 21 20 19 19 18 18 18 17 17 16 17 17 18 19 19 18 18 17 16 15 16 16 16 15 15 15 14 13 13 12 12 11 10 10 9 9 8 8
13 15 16 16 16 16 15 14 13 14 13 12 10 10 10 11 11 12 12 13 13 13 14 14 13 14 14 13 12 12 15 16 18 20 21 22 23 24 24 24 24 23 22 22 21 21 21 21 21 20 19 19 18 18 18 18 17 17 17 17 18 19 20 19 18 18 17 16 17 17 16 16 16 15 15 14 14 13 12 12 11 10 10 9 8 8
12 14 14 14 15 15 15 13 12 14 12 10 10 9 8 8 9 10 11 12 12 13 14 13 13 14 13 12 12 11 12 13 14 16 18 19 21 22 23 23 22 22 21 21 21 21 21 21 21 19 18 18 18 18 18 18 18 18 18 18 18 19 20 19 19 19 18 17 17 18 18 17 17 16 15 15 14 13 12 12 11 10 10 9 8 8
12 13 13 13 14 14 13 12 12 13 11 9 9 9 8 8 8 9 10 10 11 13 13 13 14 14 13 12 11 10 10 10 10 13 15 16 18 20 21 21 21 21 21 20 20 20 21 21 20 19 18 18 18 18 19 19 19 19 19 19 19 19 20 20 19 19 19 18 18 18 19 19 18 17 16 15 14 14 13 12 11 10 10 9 8 8
14 14 13 13 13 12 12 12 12 12 11 9 9 9 9 9 9 9 9 10 12 12 10 11 13 14 14 11 9 9 9 9 10 12 14 15 17 18 19 20 21 21 20 20 20 20 20 20 20 19 19 19 19 19 19 20 20 20 19 19 19 19 20 20 20 20 20 19 18 19 19 19 18 17 16 15 15 14 13 12 11 10 9 9 8 8
14 15 14 13 13 14 13 13 12 11 12 11 11 10 10 9 9 10 10 10 12 11 10 10 11 13 14 12 9 9 9 9 10 12 14 15 16 18 19 19 20 20 19 19 19 20 20 20 20 20 20 20 20 20 20 19 18 17 17 18 18 18 19 20 21 21 22 21 19 19 19 18 18 17 16 16 15 14 13 12 11 10 9 9 8 8
14 14 14 13 13 15 15 14 13 11 12 13 12 12 11 9 9 10 10 9 11 11 10 11 12 12 13 11 9 9 9 9 9 10 13 15 15 16 17 17 18 19 19 18 18 19 19 19 19 20 20 20 19 20 18 17 17 16 16 17 18 18 19 19 19 21 22 21 20 20 20 18 17 16 16 16 15 14 14 12 11 10 10 9 8 8
13 12 13 14 13 14 17 15 13 11 11 12 11 11 11 10 9 9 10 10 10 9 9 10 12 12 11 9 9 9 9 8 7 8 10 13 14 14 15 16 17 18 18 18 19 18 19 19 19 20 20 19 18 18 17 16 17 16 16 17 17 17 17 17 17 19 21 21 20 20 19 18 17 16 16 15 15 14 13 12 11 10 10 9 8 7
12 11 12 13 12 13 15 14 12 11 11 12 11 11 11 11 10 9 9 9 9 9 8 10 11 11 11 10 9 9 8 7 7 7 8 11 12 13 14 15 17 18 18 18 18 18 19 19 19 20 20 19 17 17 16 16 16 16 16 16 16 16 16 15 16 17 18 19 19 19 19 18 17 16 15 15 14 13 13 12 11 10 9 9 8 7
11 11 10 11 12 13 13 13 13 13 12 11 12 12 11 10 10 9 8 7 8 10 9 9 11 11 11 11 9 8 7 7 7 7 7 8 10 10 11 13 14 15 16 16 16 17 17 18 18 19 20 19 18 16 15 15 16 16 16 15 15 15 15 15 17 18 19 20 19 17 18 18 17 17 16 15 14 14 12 12 11 10 9 9 8 7
11 11 10 11 13 13 12 12 12 12 12 11 12 12 10 10 10 9 9 7 8 10 9 8 10 11 11 11 10 8 7 7 7 7 7 7 8 8 9 9 10 11 13 14 15 16 17 18 18 18 19 20 18 16 15 15 15 15 16 15 14 14 15 15 17 18 20 21 19 17 17 18 18 17 16 15 15 14 13 12 11 10 10 9 8 7
11 11 10 11 12 12 12 13 12 12 13 12 11 11 10 11 10 10 10 9 9 9 8 8 9 11 12 11 9 8 8 8 8 7 7 7 8 8 8 9 10 11 13 15 16 17 17 18 18 18 19 19 17 15 14 14 14 15 16 15 14 14 15 15 17 19 20 21 20 17 17 18 18 17 16 15 15 14 14 13 12 11 10 10 9 8
12 11 10 11 12 11 12 13 13 13 13 13 12 12 11 11 10 10 10 9 9 9 8 8 8 9 11 12 10 9 9 9 9 8 7 7 8 8 9 9 10 12 14 16 16 18 18 18 18 19 18 18 17 15 14 13 14 15 16 15 14 14 14 15 17 19 20 21 20 18 18 19 18 18 17 16 15 14 14 14 13 12 11 10 9 9
12 13 11 11 12 12 12 12 13 14 13 13 14 14 13 11 10 10 10 9 9 9 8 8 8 8 9 11 12 10 10 10 10 9 8 8 8 9 9 10 11 13 14 15 16 18 19 19 19 19 18 18 17 16 15 14 14 15 16 16 14 14 15 16 17 19 20 20 19 19 19 19 19 18 17 16 15 15 14 14 13 12 11 10 10 9
13 14 13 12 12 13 12 11 12 13 13 13 14 15 14 13 12 11 11 10 10 9 8 9 8 7 7 10 11 11 11 11 10 10 10 10 9 10 11 11 12 12 13 13 14 16 19 20 20 20 19 18 18 17 16 16 15 16 16 16 15 15 16 16 17 18 20 20 19 19 19 19 19 18 17 16 16 15 15 14 13 12 11 10 10 10
13 13 13 13 13 13 12 12 12 13 12 12 12 13 13 13 13 13 12 11 10 9 8 9 9 8 8 9 9 10 10 10 11 11 10 10 10 10 11 11 11 12 12 12 13 16 19 20 20 20 19 18 18 18 17 17 16 16 16 16 16 15 16 17 17 18 19 19 19 20 19 19 19 18 18 17 16 16 15 15 14 13 12 11 11 10
14 13 13 13 12 12 13 13 13 13 13 12 11 11 12 13 13 13 12 11 11 11 9 9 10 9 9 9 9 9 9 9 10 10 9 9 9 9 9 9 9 9 10 11 14 17 20 20 18 18 17 17 18 18 17 17 16 16 16 16 16 16 16 17 18 18 19 19 19 19 19 19 19 18 17 17 17 16 16 15 14 14 13 12 11 11
14 13 12 12 12 12 13 13 14 13 12 12 12 11 11 11 12 13 12 11 12 11 10 10 10 8 8 9 9 9 9 8 8 7 7 7 7 7 7 7 7 6 6 9 14 18 20 18 16 15 15 16 16 16 15 16 16 16 16 16 16 16 16 17 18 19 20 20 20 20 19 19 19 18 17 17 17 17 16 16 15 14 14 13 12 12
13 13 13 13 13 13 13 13 14 13 12 12 12 11 10 10 11 12 12 12 13 12 11 11 9 8 9 8 7 8 7 7 7 6 5 6 6 6 5 5 5 5 5 6 9 15 18 16 14 14 14 14 14 13 13 14 15 16 15 15 15 15 15 16 18 19 20 20 20 20 20 19 19 18 17 17 16 16 16 16 16 15 14 13 13 12
13 12 13 13 14 14 13 13 13 13 13 13 12 11 10 10 11 12 12 12 12 12 12 12 10 10 10 8 7 7 6 6 6 6 5 5 5 4 4 4 4 4 4 4 6 12 14 13 13 12 12 13 13 12 12 13 15 15 15 14 14 14 14 15 17 18 19 20 20 20 19 19 19 18 17 17 16 16 16 17 17 16 15 14 14 13
13 12 12 12 12 13 13 13 13 13 12 12 12 11 11 10 11 13 12 12 11 12 12 12 12 11 9 8 7 7 7 6 6 5 5 5 5 4 4 4 3 2 2 3 5 8 10 11 11 10 9 10 11 12 12 13 14 15 15 14 14 14 14 15 16 16 18 19 19 19 19 19 19 18 17 17 17 16 16 16 17 17 16 15 15 14
12 11 12 12 11 12 12 12 12 12 12 11 11 10 10 10 10 11 11 11 12 12 11 12 12 11 9 8 8 8 7 6 5 5 5 5 4 4 4 3 2 2 1 1 3 6 7 8 8 7 7 9 9 10 11 12 13 14 14 15 14 14 14 15 15 15 16 17 18 18 18 18 18 19 18 18 17 17 16 16 17 17 17 16 16 16
10 9 10 11 11 11 11 12 12 12 12 10 10 10 10 10 9 9 10 10 10 10 10 10 10 9 9 9 9 8 7 6 5 5 4 4 4 4 3 3 3 3 2 2 3 4 5 6 6 6 6 7 7 8 9 10 12 13 14 14 14 14 14 15 15 15 15 16 16 17 18 18 18 18 18 18 18 17 17 16 16 17 17 17 17 17
11 10 9 10 10 10 11 11 12 12 11 9 8 9 10 10 10 9 10 10 9 9 9 9 10 10 10 9 9 8 7 6 5 5 4 4 5 4 4 3 3 3 3 2 2 3 4 5 5 4 5 5 6 7 8 9 11 12 13 13 14 14 14 14 14 14 15 15 16 16 17 18 18 19 19 19 20 19 19 19 19 20 20 20 19 19
10 10 10 9 9 10 10 11 12 12 12 10 8 9 10 11 12 12 12 12 11 11 10 11 11 11 11 10 9 8 7 6 5 5 5 5 5 5 4 3 3 3 3 3 2 3 3 3 4 4 4 5 5 6 7 8 9 10 11 11 12 13 13 13 13 13 14 15 15 15 16 17 18 18 19 20 20 21 21 21 21 21 22 22 21 21
10 10 9 9 9 9 9 10 11 13 14 12 11 11 11 11 13 13 13 12 12 13 12 12 12 12 11 11 10 9 8 7 6 6 6 6 5 5 4 4 4 3 3 3 3 3 3 3 3 3 3 3 4 4 5 6 7 8 9 10 11 12 12 11 11 11 12 13 14 14 14 15 16 16 16 16 17 17 18 17 17 17 17 18 19 20
9 9 9 9 8 7 7 8 10 12 13 12 12 13 12 11 12 12 13 12 12 13 13 12 12 12 11 11 10 10 9 8 8 7 6 7 7 6 5 5 5 4 4 4 4 3 3 4 4 4 4 4 4 5 5 6 7 8 9 9 10 10 10 9 8 8 9 10 10 11 12 12 12 13 13 13 13 13 13 13 13 14 14 15 15 17
10 10 9 9 8 7 6 7 8 9 9 11 11 11 12 12 11 11 12 11 12 12 12 12 13 12 12 11 10 10 9 8 8 7 7 8 8 7 6 6 6 5 5 4 4 4 4 4 4 4 4 4 4 5 5 6 7 7 8 8 9 9 8 8 7 7 7 8 8 9 9 10 10 11 11 11 11 11 11 11 12 13 13 13 13 13
10 10 10 9 8 8 7 7 7 6 7 8 9 9 10 12 12 12 11 11 11 13 13 13 13 13 13 12 11 10 10 8 7 7 8 8 7 7 7 7 7 6 6 5 5 4 5 5 4 4 4 4 4 5 5 6 6 6 6 6 7 8 8 8 8 8 8 7 8 8 8 9 10 10 10 10 9 9 9 9 10 10 11 12 12 12
8 9 10 9 8 8 8 6 6 7 7 7 7 7 8 10 11 12 12 11 11 13 13 13 13 14 14 14 13 13 11 8 7 8 9 8 8 8 8 8 7 7 6 6 5 5 6 6 5 4 4 4 4 5 5 6 6 6 6 6 6 7 7 7 8 8 8 7 7 7 7 8 9 9 9 9 8 8 9 9 9 9 10 11 12 12
5 8 9 9 8 8 8 7 7 7 6 6 6 6 7 9 10 11 11 10 9 11 12 13 13 13 14 15 16 16 14 11 11 12 11 9 9 9 8 8 8 8 7 7 7 7 7 6 6 5 5 5 4 5 6 6 6 6 6 6 6 6 6 6 6 7 7 7 7 7 7 7 7 8 8 8 8 9 9 10 10 10 11 12 12 13
2 4 7 8 7 8 8 7 6 6 6 6 7 7 7 8 8 9 9 8 8 9 11 12 12 13 14 14 16 16 15 14 14 15 13 11 10 9 9 8 8 8 8 8 8 8 7 7 6 6 6 6 5 5 6 7 6 6 6 6 6 6 6 6 6 6 7 7 7 7 8 7 8 8 8 9 9 9 10 11 11 11 12 13 13 13
3 3 5 6 7 7 7 7 7 6 5 6 8 9 9 8 8 9 8 7 8 10 11 11 11 12 13 13 14 14 13 13 14 15 14 12 11 10 9 9 8 7 7 7 8 8 8 8 7 6 6 6 6 6 6 7 7 7 6 6 6 6 6 6 6 6 7 7 8 8 8 8 8 8 9 9 10 10 11 11 12 12 13 13 14 14
3 3 4 5 6 6 6 6 7 7 6 7 8 9 9 8 8 8 8 7 9 10 11 11 11 12 12 12 12 12 11 11 12 13 13 12 11 11 10 10 9 7 7 7 7 7 7 7 6 6 6 6 6 6 6 7 7 7 7 7 7 6 6 7 6 7 7 8 8 9 9 9 9 9 10 10 11 12 12 13 13 14 14 15 15 16
4 3 3 4 6 6 6 6 7 7 7 8 10 9 8 8 9 8 8 9 10 10 10 10 11 11 10 10 10 10 11 11 12 12 13 12 12 11 11 11 10 8 8 8 7 7 6 6 5 6 6 6 6 6 7 7 7 7 7 7 6 6 7 8 8 8 8 8 9 9 9 10 10 11 11 12 12 13 13 14 15 16 17 17 18 19
4 4 4 4 5 6 6 6 7 7 7 9 10 9 8 8 9 9 9 9 9 10 10 10 10 10 10 9 9 10 11 11 12 12 12 11 11 11 11 11 10 9 9 9 8 8 7 6 6 6 6 7 7 7 8 8 8 8 8 7 7 7 8 9 9 9 9 9 9 9 10 10 11 12 13 13 13 14 14 16 16 17 18 19 19 20
2 3 4 4 5 6 6 6 7 7 7 8 8 8 9 9 10 10 10 9 9 10 10 10 9 10 11 11 10 11 11 11 12 12 11 11 11 11 11 11 10 10 10 10 10 10 9 8 8 8 8 8 8 7 7 8 8 9 9 9 9 9 9 9 10 10 10 10 10 11 11 12 12 13 14 14 15 16 17 18 18 19 20 20 21 22
1 2 3 3 3 4 4 6 7 7 7 7 7 7 8 9 9 10 9 9 9 9 10 9 9 10 11 11 11 11 12 12 12 12 12 11 11 12 12 12 11 11 11 10 10 10 10 10 10 10 9 9 8 8 8 8 9 10 10 10 10 10 10 10 11 11 12 12 12 13 13 14 14 15 16 17 17 18 19 20 20 21 22 23 24 24
1 2 3 2 2 3 3 4 6 6 7 7 6 6 7 7 7 8 8 8 8 8 10 10 10 10 10 11 11 12 13 13 13 13 12 12 12 12 12 12 12 11 11 11 11 10 10 10 11 10 10 10 10 10 10 10 10 11 11 11 11 11 12 12 13 13 13 14 14 15 15 16 17 17 18 19 19 20 21 22 22 23 24 25 25 26
0 1 2 2 3 4 3 3 5 6 6 6 6 5 5 5 6 6 7 7 7 8 9 10 10 10 11 11 12 13 14 14 14 13 13 13 13 13 13 13 13 12 12 12 12 12 12 12 11 11 11 10 11 11 11 11 12 12 12 12 12 12 13 13 13 14 15 15 16 16 17 17 19 19 20 20 20 21 22 22 23 24 24 25 25 26
1 1 1 1 2 2 3 3 4 4 4 5 5 5 6 5 5 6 6 6 7 7 8 9 10 10 11 11 12 13 14 14 14 14 14 14 14 14 14 13 13 13 13 13 13 13 13 13 13 13 12 12 12 12 12 12 12 13 13 13 13 13 14 14 14 15 16 16 17 17 17 18 19 19 20 20 21 21 22 23 23 24 24 25 25 26
2 1 2 2 1 1 2 3 4 3 3 4 5 6 6 7 6 7 7 7 6 6 7 8 9 9 10 11 12 12 13 13 14 14 14 14 14 14 14 14 14 14 14 14 14 14 14 14 14 14 14 13 13 13 13 13 13 13 14 14 14 14 15 15 16 16 17 17 18 18 18 19 19 19 19 20 21 21 22 23 24 24 25 25 26 26
3 2 2 2 2 2 3 4 5 5 4 5 5 6 6 7 7 8 8 8 8 8 9 9 9 10 10 11 12 13 13 13 14 14 14 14 15 15 14 14 14 14 14 14 14 14 14 14 14 15 14 14 14 14 14 14 14 14 15 15 15 15 16 16 17 17 18 18 19 19 20 20 20 20 20 21 21 22 22 23 24 24 25 26 26 27
4 4 4 4 3 3 3 4 5 5 5 6 6 7 7 8 8 8 9 10 11 11 11 11 11 11 11 12 13 14 14 14 14 14 15 15 15 15 15 15 15 15 14 14 14 14 14 14 15 15 15 15 15 15 15 15 15 15 16 16 16 17 17 17 18 19 19 19 20 20 21 21 21 21 22 22 22 23 23 24 24 25 25 26 27 27
Wind_Direction
238 236 236 236 236 235 236 238 240 242 243 245 248 251 252 255 257 256 257 255 250 253 251 246 246 244 241 236 234 233 232 232 231 230 229 227 226 226 223 221 223 228 231 227 222 219 217 214 210 210 211 212 214 215 215 216 218 220 222 227 229 221 213 210 210 210 212 213 213 214 215 217 219 221 221 221 220 219 219 219 220 220 220 221 221 220
238 237 237 236 234 235 237 237 238 241 244 248 250 255 256 255 258 258 259 259 251 250 248 245 248 246 242 239 235 235 233 233 232 230 229 228 227 228 226 225 225 228 232 230 227 223 219 215 211 211 210 210 213 215 217 219 221 221 223 226 228 223 215 210 209 209 210 212 213 214 215 216 216 217 217 218 218 217 215 213 214 216 218 218 218 219
238 238 235 233 234 236 240 238 238 241 244 248 251 255 257 254 258 258 259 260 251 247 248 247 251 250 246 241 237 236 234 234 232 229 229 227 227 228 227 226 226 227 230 229 226 224 221 217 213 212 211 211 213 216 218 221 222 223 224 225 224 222 218 214 211 210 212 214 216 216 215 214 213 212 212 214 214 211 209 209 210 213 215 217 218 219
238 240 234 231 232 234 239 239 238 243 247 249 251 253 253 252 255 256 256 256 249 247 250 252 255 252 248 243 239 238 237 237 235 230 229 228 227 227 225 225 224 223 225 225 224 224 222 220 217 215 214 214 215 217 218 219 222 226 226 224 223 222 220 217 213 213 214 215 216 216 213 211 210 209 209 211 211 209 207 208 209 212 214 217 219 217
237 239 233 230 233 233 236 239 238 244 249 250 250 251 252 251 250 252 257 261 255 249 247 251 255 251 246 242 240 241 241 241 239 234 232 231 230 229 226 224 224 223 223 223 223 223 222 221 219 217 216 216 218 219 220 221 225 228 228 227 225 224 223 220 215 212 214 214 213 212 210 208 208 208 208 209 209 208 209 209 210 213 216 217 217 217
236 234 228 228 233 232 233 237 238 242 249 252 249 247 248 248 247 249 254 259 257 249 243 246 250 247 242 239 237 239 243 242 239 235 233 231 230 229 226 225 224 223 223 222 222 222 221 221 221 219 218 218 220 222 223 224 225 228 229 228 227 225 225 223 217 213 214 214 212 211 209 208 208 207 208 208 208 207 208 209 210 213 215 216 215 217
237 231 228 228 229 229 231 237 237 237 245 252 249 244 244 245 246 245 244 246 249 247 243 245 250 249 245 241 238 241 246 245 240 236 233 231 229 228 226 225 223 221 221 221 221 220 220 220 220 220 219 220 220 223 225 225 226 227 229 229 228 227 225 224 220 215 215 216 214 212 209 209 208 207 207 207 204 203 204 205 207 210 212 213 214 216
235 231 231 231 230 229 233 238 234 230 237 247 246 243 240 240 239 236 235 238 245 251 248 246 249 250 249 245 243 247 250 247 240 235 232 229 228 227 225 223 221 219 218 218 219 218 218 219 219 219 220 221 221 223 225 227 227 227 230 230 228 228 225 222 220 216 216 216 214 212 209 208 208 205 203 202 201 200 200 201 205 209 210 212 215 218
233 230 228 227 229 231 233 236 228 223 235 243 240 241 240 237 234 230 233 238 245 252 249 243 241 245 247 243 244 249 251 248 241 234 229 226 226 225 222 220 219 218 217 217 218 217 218 218 218 218 220 221 221 223 226 227 228 228 231 231 228 228 226 219 216 214 215 216 212 210 209 206 204 202 200 199 200 200 200 202 205 209 210 214 218 222
234 232 228 225 226 228 229 230 221 218 232 238 232 239 242 237 234 232 236 239 241 246 247 241 237 243 248 243 244 250 254 252 241 229 222 220 221 221 219 218 218 217 217 217 217 217 216 217 217 217 218 220 221 224 227 228 229 229 231 230 227 229 226 218 213 213 214 214 210 209 207 202 200 200 200 201 201 202 202 204 207 210 213 218 222 225
236 236 234 230 227 225 225 226 221 219 228 231 229 235 237 234 235 237 240 240 240 244 246 240 236 242 248 244 243 249 254 253 238 224 218 215 217 217 216 216 216 216 216 216 215 214 214 215 215 216 217 219 222 224 226 229 230 230 230 228 226 227 225 218 213 212 211 209 206 206 204 199 198 199 201 202 202 203 204 206 209 212 215 220 223 224
237 235 234 232 227 222 222 223 225 227 230 233 236 236 234 234 232 235 238 237 241 244 244 243 238 238 242 241 241 247 251 248 236 227 222 218 215 214 213 214 214 215 214 214 214 213 213 214 214 217 219 220 223 225 228 230 231 230 229 226 225 226 224 218 214 212 209 205 203 202 200 197 198 200 202 203 202 203 205 207 210 211 214 219 222 225
237 235 235 234 227 220 220 224 225 227 229 230 234 232 232 235 233 236 239 239 244 244 241 241 238 237 241 243 244 247 248 243 235 230 227 223 218 214 212 212 212 212 212 213 214 212 214 217 218 219 219 220 224 226 228 231 233 235 234 229 226 227 226 220 216 212 207 202 200 199 197 197 199 200 202 203 202 204 206 207 208 210 212 218 223 227
236 236 232 229 227 218 217 223 223 223 224 225 227 225 224 229 234 237 240 244 249 246 243 240 236 239 242 241 242 244 243 240 236 233 227 221 217 213 210 210 211 211 211 212 213 213 217 221 221 219 218 221 224 224 228 234 238 240 236 230 228 230 228 224 218 211 205 201 198 197 197 198 200 201 203 204 203 204 206 206 207 209 214 220 224 228
231 236 227 220 222 215 213 219 222 220 223 227 229 227 227 229 234 239 239 243 247 244 241 234 231 235 234 233 239 237 234 231 227 224 217 213 212 210 207 209 211 212 213 213 215 217 220 221 220 218 217 219 221 224 230 236 239 238 232 229 229 229 228 225 219 213 207 201 197 196 198 199 200 201 203 204 204 206 206 206 208 211 215 220 224 228
230 237 228 220 220 214 212 218 218 219 226 231 230 229 233 234 235 243 244 243 246 244 238 232 233 236 231 231 235 228 225 227 222 215 209 207 205 204 207 210 210 212 213 214 216 219 221 220 219 217 215 216 221 229 235 236 237 234 227 225 226 225 225 223 217 214 208 200 195 195 197 198 200 202 203 204 206 207 207 207 209 212 214 217 221 224
228 233 227 222 219 215 218 220 219 224 225 224 225 227 234 237 233 236 241 242 245 246 243 236 236 236 228 227 227 222 222 226 226 220 214 212 206 205 211 213 213 215 214 214 218 220 219 218 218 217 216 218 226 235 237 236 235 229 222 221 222 222 224 222 216 212 206 201 197 196 198 199 200 202 203 205 206 207 208 210 212 213 215 218 221 223
229 232 228 221 216 217 225 223 222 228 225 220 225 226 229 236 234 234 239 242 242 245 245 238 237 235 227 224 223 223 225 225 226 222 217 219 214 214 222 224 226 228 223 220 224 224 218 214 215 217 218 220 228 235 237 234 231 225 219 219 221 221 222 221 215 209 204 200 199 200 200 201 202 203 205 207 207 209 210 212 213 214 216 220 225 228
228 232 230 221 218 221 225 222 220 226 228 228 230 226 227 233 233 230 234 238 240 244 244 238 237 234 228 225 224 227 229 224 222 220 219 221 218 219 227 231 235 236 232 230 230 227 220 215 215 217 219 219 224 231 233 229 223 218 214 216 221 222 220 218 213 206 202 200 203 206 206 204 204 206 208 210 211 211 212 212 212 214 218 223 229 234
225 229 229 220 219 222 223 224 223 223 225 228 227 227 232 237 235 231 232 238 240 240 240 237 236 231 227 227 230 234 234 225 219 220 224 225 222 222 225 226 229 234 236 237 235 227 220 218 218 219 219 219 222 227 227 222 216 212 213 216 220 220 216 213 209 203 201 202 206 210 209 207 206 207 210 212 212 212 212 211 211 214 221 227 232 236
224 227 227 222 221 224 224 227 228 226 225 225 225 225 229 232 235 234 234 238 241 236 234 236 237 231 226 228 232 237 237 228 219 220 224 226 228 230 232 232 231 233 237 241 240 228 219 218 218 218 219 218 219 222 221 218 213 210 212 215 217 215 209 206 203 201 201 204 208 209 208 207 206 207 210 211 211 211 211 212 213 217 223 227 232 236
224 224 226 227 228 229 229 229 230 229 228 228 229 228 228 227 227 231 233 235 238 238 233 234 237 232 228 230 232 236 237 231 223 221 225 230 236 238 242 244 240 239 241 242 239 226 217 216 215 216 218 218 218 219 218 216 213 209 210 211 212 211 206 203 202 201 203 206 207 207 206 206 207 208 209 210 211 212 213 214 216 219 224 227 231 235
224 224 225 228 230 231 231 230 229 229 226 226 229 230 229 228 228 232 236 232 231 235 235 236 238 237 236 235 233 235 234 227 224 224 225 231 238 239 243 249 248 250 250 242 233 220 212 212 213 214 216 217 218 218 216 215 214 210 209 209 209 208 206 206 205 204 205 206 207 206 206 207 207 208 210 211 213 215 216 218 219 222 225 227 230 233
222 223 223 225 229 231 228 226 224 225 224 223 226 227 228 232 233 234 238 235 228 227 230 235 237 238 240 237 233 234 228 221 227 231 228 229 236 240 245 255 258 259 257 242 230 220 211 209 210 212 215 218 220 220 217 214 214 212 211 210 210 209 208 208 208 207 206 206 207 207 208 210 210 210 211 214 216 218 218 220 221 222 225 226 228 231
221 224 222 221 225 226 224 225 223 222 224 225 226 228 229 232 233 232 234 235 232 229 230 235 235 236 240 235 230 230 226 227 238 244 239 237 244 251 254 260 264 263 263 249 229 214 207 206 207 210 214 216 217 219 217 214 214 214 213 212 211 211 211 210 210 210 209 208 208 208 210 212 211 210 213 217 219 220 220 221 222 222 224 226 228 231
223 228 227 224 225 224 224 226 226 225 228 228 227 231 234 235 236 234 231 232 234 231 229 235 236 232 233 230 226 228 229 235 244 247 247 250 257 261 257 258 262 259 267 257 217 200 199 204 209 214 215 213 213 217 217 213 211 212 212 211 211 212 213 212 211 210 209 209 209 209 210 211 210 211 215 219 220 220 221 222 222 223 225 227 229 231
226 230 231 229 228 228 228 228 228 228 229 230 232 237 240 242 241 235 231 232 234 228 228 236 234 223 223 228 230 232 231 235 241 242 244 250 259 261 253 254 260 257 260 253 208 195 198 205 216 224 222 218 220 225 223 214 209 208 210 210 211 211 212 212 210 210 210 210 210 210 210 210 211 214 217 220 221 222 223 223 223 224 226 230 232 233
227 230 234 232 228 229 231 231 229 227 226 229 234 238 241 245 242 233 233 238 237 231 232 234 225 218 225 236 239 237 233 233 238 239 238 244 252 247 239 247 257 251 248 236 206 197 197 204 216 225 225 223 225 226 222 216 211 209 210 211 211 211 212 211 210 210 212 214 214 214 212 212 214 216 219 221 222 223 224 224 224 225 228 232 234 236
224 227 232 228 224 226 228 228 224 222 224 227 231 235 240 243 238 231 234 242 241 238 236 226 218 222 232 239 243 242 238 235 234 230 229 233 236 229 226 234 239 223 198 168 183 191 196 205 213 219 224 227 225 222 220 216 212 211 212 212 211 211 211 212 210 209 211 213 214 215 216 217 218 220 222 222 222 224 226 225 225 227 231 235 238 239
220 225 230 226 222 225 229 226 220 218 222 227 230 235 237 235 231 228 232 239 238 234 230 219 216 228 238 239 241 240 235 231 228 225 227 230 228 222 215 210 212 212 192 152 168 193 201 205 210 215 221 224 224 224 223 218 215 213 212 212 212 210 210 210 210 211 213 214 216 218 220 222 222 222 223 224 225 227 228 227 229 232 236 239 241 241
222 225 233 232 226 227 232 230 223 218 218 221 231 241 241 236 233 233 235 240 237 228 223 220 222 232 238 236 233 232 230 231 233 233 232 235 233 222 210 206 212 210 196 181 184 199 201 204 209 215 222 228 230 227 224 222 219 215 212 211 209 207 207 207 208 211 215 217 220 222 223 224 225 226 229 230 230 231 232 234 238 241 242 242 243 243
225 224 229 233 229 229 234 234 231 227 222 222 234 249 250 242 237 236 236 238 238 231 222 222 228 232 233 231 231 232 229 228 236 241 237 236 236 229 219 216 221 215 203 206 218 215 209 211 212 214 223 230 230 227 224 218 213 210 207 203 200 199 201 204 207 212 217 220 223 225 226 228 230 231 234 235 235 236 237 240 244 246 244 243 242 243
227 222 223 227 225 228 237 238 235 232 230 231 238 246 249 245 239 237 236 239 243 238 229 228 231 230 229 230 232 233 230 226 230 239 242 239 231 227 224 222 226 227 218 215 220 215 205 199 193 193 196 194 190 194 197 191 186 188 189 187 187 191 196 202 207 213 218 222 224 226 228 229 230 230 231 231 231 232 233 235 237 239 239 238 239 239
226 221 221 222 220 224 238 239 232 232 234 234 238 243 246 245 242 238 237 242 243 236 230 229 228 227 230 233 232 229 229 228 226 227 234 236 229 221 222 227 228 226 219 214 216 214 201 188 181 170 155 146 147 154 159 161 164 169 172 174 177 182 188 194 200 206 210 213 216 218 218 218 219 219 220 220 220 220 223 227 230 233 235 235 234 232
226 223 220 220 222 224 230 231 228 233 237 232 234 242 243 242 243 238 236 241 239 230 226 226 227 227 228 229 229 226 224 223 224 226 229 233 232 222 220 227 228 224 221 218 217 211 192 182 181 172 157 149 150 155 153 150 152 155 159 166 171 174 177 178 178 183 187 192 198 202 204 205 207 210 212 213 214 216 220 225 229 231 231 228 226 222
229 224 220 222 226 223 220 224 224 226 231 228 231 242 241 241 245 243 237 239 239 234 229 228 229 227 222 220 221 222 220 215 220 234 235 232 230 223 221 225 223 220 221 217 213 206 189 185 193 192 177 168 163 162 158 155 156 156 157 164 170 171 171 170 169 172 178 183 189 195 200 204 207 209 211 213 215 217 218 219 222 224 224 221 219 216
232 224 221 223 227 219 210 212 215 215 221 228 234 242 241 241 247 245 240 241 241 236 229 224 223 221 218 218 217 216 219 220 227 240 240 233 228 224 223 223 218 216 218 215 210 204 194 193 200 194 183 177 172 169 168 170 172 170 166 167 171 171 172 174 175 178 183 188 194 200 206 209 209 210 213 216 219 218 215 214 216 220 222 220 219 222
233 228 224 222 224 221 209 205 215 221 227 238 245 246 242 243 246 242 239 242 241 232 224 219 216 214 214 216 218 222 229 233 235 237 234 228 224 221 220 223 223 224 225 223 219 212 205 205 206 199 196 196 189 185 188 192 190 181 172 172 176 179 180 182 184 188 192 197 203 208 213 216 216 215 216 220 222 221 219 220 223 226 227 224 223 227
249 233 224 217 218 222 215 212 222 228 232 246 257 259 254 248 244 238 238 242 237 226 220 216 213 215 217 218 222 229 233 233 233 233 229 224 221 218 216 219 222 223 222 220 218 212 208 209 208 203 204 206 207 207 207 206 200 190 183 182 184 186 191 194 197 200 202 206 212 216 220 223 224 223 224 226 228 228 228 230 231 231 229 227 227 231
267 251 232 216 213 219 218 218 224 228 234 250 262 265 263 254 243 241 244 244 235 224 218 214 210 213 217 221 227 233 233 230 228 226 222 220 217 214 212 213 214 213 208 206 206 204 202 203 204 205 209 215 221 219 211 205 201 197 197 197 193 192 199 205 208 209 212 218 223 226 230 231 231 230 231 233 234 234 235 235 235 235 234 234 236 239
242 245 233 212 208 214 215 213 220 226 235 253 264 266 262 250 242 244 247 247 240 227 218 214 210 208 213 222 229 232 227 219 215 214 213 211 208 208 209 207 204 200 195 193 195 197 199 202 205 208 212 217 219 215 211 209 204 202 204 203 198 200 207 212 217 220 223 226 229 232 236 239 240 240 240 241 241 240 241 240 240 241 242 244 247 249
233 238 237 222 216 217 215 213 218 225 238 262 270 264 252 241 240 244 249 248 239 226 217 213 210 209 215 221 220 214 205 201 203 206 206 204 202 203 204 201 198 198 199 198 195 194 197 203 208 210 213 218 219 217 219 217 207 205 209 206 204 212 218 220 224 226 227 228 231 236 240 243 246 247 247 248 247 245 246 247 247 248 250 252 254 256
240 240 241 242 232 225 221 223 226 231 250 273 273 258 247 246 246 246 248 243 230 219 217 217 216 218 217 212 205 197 192 195 199 200 199 199 200 200 199 199 201 205 208 208 206 205 207 210 213 214 217 223 225 223 225 223 216 215 217 216 219 227 229 228 228 228 230 232 236 242 246 249 251 251 251 252 252 252 254 256 257 257 258 259 260 260
256 248 239 246 246 238 232 232 235 240 256 271 266 250 247 251 250 246 241 232 222 218 220 223 225 222 211 202 200 199 195 195 196 196 196 199 201 201 201 204 208 210 212 214 214 214 216 217 217 216 216 218 219 219 222 223 219 217 218 220 225 229 230 231 233 235 238 241 244 247 250 252 254 255 256 256 257 258 260 262 263 264 265 265 265 266
271 258 239 240 244 236 229 231 236 243 254 260 255 248 248 248 248 244 235 226 224 225 223 221 219 214 207 201 199 199 199 199 199 199 200 201 203 205 206 208 211 212 214 216 217 218 219 219 218 218 217 216 216 217 221 225 223 220 220 224 229 233 235 238 241 243 245 249 252 254 254 255 258 260 260 261 262 263 264 266 267 268 269 270 270 270
221 251 245 239 235 230 228 240 246 251 258 259 253 249 248 245 246 242 232 227 230 230 224 218 213 210 210 206 202 202 204 202 200 202 203 204 205 208 208 209 212 215 216 218 220 221 221 220 220 222 221 222 225 228 231 234 234 232 232 235 239 242 243 244 245 247 250 254 257 258 259 260 262 264 265 265 265 266 267 268 269 271 272 273 273 274
46 280 260 256 251 245 249 267 266 259 258 256 251 249 248 244 243 240 230 226 227 226 222 219 213 210 211 208 207 208 208 206 204 207 210 211 212 213 214 215 218 221 223 224 226 226 224 223 225 226 227 231 235 238 240 242 242 241 242 244 245 246 246 245 247 251 257 261 262 263 264 266 267 269 270 270 269 269 270 271 272 274 275 276 276 276
352 326 322 313 289 267 266 275 272 264 258 254 250 247 244 237 232 231 228 224 221 218 218 220 216 212 211 210 210 210 210 211 212 212 214 218 220 221 222 223 224 227 230 231 232 231 230 229 230 232 235 238 242 245 246 248 250 250 250 252 253 254 255 256 257 261 265 268 268 269 270 271 271 271 272 273 274 274 275 275 276 277 278 279 279 279
344 342 335 324 320 297 278 267 261 262 266 263 256 247 242 238 232 230 229 225 216 206 206 211 212 210 209 209 211 212 215 219 219 216 216 220 223 224 226 227 227 229 231 232 233 234 235 235 236 238 240 243 245 247 249 251 254 255 256 257 259 260 262 264 265 267 269 270 271 272 274 275 276 275 275 275 276 277 278 278 279 280 281 282 282 282
9 17 346 321 325 316 295 276 268 269 267 262 257 252 248 244 237 231 229 225 217 208 202 202 206 210 211 210 211 214 219 224 225 223 222 224 226 228 230 231 232 232 233 234 236 237 238 239 239 240 242 244 246 248 250 252 255 257 259 261 262 264 266 267 268 270 271 271 272 273 274 276 277 278 278 278 278 278 279 280 281 282 282 283 283 283
10 5 341 336 344 330 308 290 281 278 268 256 255 256 256 253 245 237 233 228 221 216 212 209 211 215 216 216 216 217 219 224 227 229 230 232 233 235 236 236 236 235 236 236 238 240 242 244 244 244 245 246 248 250 252 253 255 257 260 262 264 266 269 270 271 273 274 274 274 275 275 276 277 278 279 280 280 280 280 280 281 282 283 284 284 285